Home > Weather > Macau > Past weeks

Flag for Macau Past Weather in Macau, Macau — Yesterday and Last 2 Weeks

Now
88 °F

Passing clouds.


Feels Like: 105 °F
Forecast: 82 / 92 °F
Wind: 9 mph from Southeast

Location: Taipa

Current Time: Aug 25, 2016 at 6:10:19 PM

Latest Report: Aug 25, 2016 at 5:30 PM


Visibility: N/A

Pressure: 29.59 "Hg

Humidity: 79%

Dew Point: 81 °F

Location of MacauLocation

Past Weather in Macau — Graph

°F

Macau Temperature Yesterday

Maximum temperature yesterday: 90 °F (at 12:30 PM)
Minimum temperature yesterday: 82 °F (at 3:00 AM)
Average temperature yesterday: 86 °F

High & Low Weather Summary for the Past Weeks

 TemperatureHumidityPressure
High90 °F (Aug 23, 1:00 PM)100% (Aug 15, 10:00 PM)29.71 "Hg (Aug 15, 10:00 PM)
Low77 °F (Aug 21, 4:30 AM)59% (Aug 23, 5:30 PM)29.24 "Hg (Aug 17, 4:00 PM)
Average83 °F86%29.53 "Hg
* Reported Aug 10 5:00 PM — Aug 25 5:00 PM, Macau, Weather by CustomWeather, © 2016

Note: Actual official high and low records may vary slightly from our data, if they occured in-between our weather recording intervals... More about our weather records

Advertising

Macau Weather History for the Previous 24 Hours

Scroll right to see more
 ConditionsComfort  
Time TempWeatherWind HumidityBarometerVisibility
5:00 PM
Thu, Aug 25
88 °FPassing clouds.10 mph75%29.59 "HgN/A
4:30 PM88 °FPassing clouds.12 mph75%29.59 "HgN/A
4:00 PM88 °FPassing clouds.9 mph75%29.59 "HgN/A
3:30 PM90 °FPassing clouds.7 mph71%29.59 "HgN/A
3:00 PM90 °FPassing clouds.5 mph71%29.62 "HgN/A
2:30 PM90 °FPassing clouds.5 mph71%29.62 "HgN/A
2:00 PM90 °FPassing clouds.5 mph71%29.62 "HgN/A
1:30 PM90 °FPassing clouds.5 mph67%29.65 "HgN/A
1:00 PM88 °FPassing clouds.5 mph70%29.65 "HgN/A
12:30 PM88 °FPassing clouds.5 mph70%29.65 "HgN/A
12:00 PM88 °FPassing clouds.5 mph75%29.68 "HgN/A
11:30 AM88 °FPassing clouds.6 mph75%29.68 "HgN/A
11:00 AM88 °FPassing clouds.6 mph75%29.71 "HgN/A
10:30 AM88 °FPassing clouds.6 mph75%29.71 "HgN/A
10:00 AM88 °FPassing clouds.5 mph75%29.71 "HgN/A
9:30 AM88 °FPassing clouds.6 mph75%29.71 "HgN/A
9:00 AM88 °FPassing clouds.6 mph75%29.71 "HgN/A
8:30 AM88 °FPassing clouds.6 mph75%29.68 "HgN/A
8:00 AM86 °FScattered clouds.6 mph79%29.68 "HgN/A
7:30 AM84 °FPartly sunny.5 mph84%29.65 "HgN/A
7:00 AM84 °FPassing clouds.5 mph84%29.65 "HgN/A
6:30 AM84 °FPassing clouds.3 mph84%29.65 "HgN/A
6:00 AM82 °FPassing clouds.5 mph89%29.65 "HgN/A
5:30 AM84 °FPassing clouds.5 mph84%29.62 "HgN/A
5:00 AM84 °FPassing clouds.5 mph84%29.62 "HgN/A
4:30 AM84 °FPassing clouds.6 mph84%29.62 "HgN/A
4:00 AM84 °FPassing clouds.7 mph84%29.62 "HgN/A
3:30 AM84 °FPassing clouds.6 mph84%29.59 "HgN/A
3:00 AM84 °FPassing clouds.7 mph84%29.59 "HgN/A
2:30 AM84 °FPassing clouds.8 mph84%29.62 "HgN/A
2:00 AM84 °FPassing clouds.9 mph84%29.62 "HgN/A
1:30 AM84 °FPassing clouds.7 mph89%29.62 "HgN/A
1:00 AM84 °FPassing clouds.8 mph89%29.62 "HgN/A
12:30 AM84 °FPassing clouds.10 mph84%29.62 "HgN/A
12:00 AM84 °FPassing clouds.13 mph84%29.65 "HgN/A
11:30 PM
Wed, Aug 24
84 °FPassing clouds.10 mph84%29.65 "HgN/A
11:00 PM84 °FPassing clouds.7 mph84%29.65 "HgN/A
10:30 PM84 °FPassing clouds.6 mph84%29.65 "HgN/A
10:00 PM84 °FPassing clouds.7 mph84%29.65 "HgN/A
9:30 PM84 °FPassing clouds.7 mph84%29.65 "HgN/A
9:00 PM86 °FPassing clouds.8 mph79%29.65 "HgN/A
8:30 PM86 °FPassing clouds.9 mph79%29.62 "HgN/A
8:00 PM86 °FPassing clouds.10 mph79%29.65 "HgN/A
7:30 PM86 °FPassing clouds.12 mph79%29.62 "HgN/A
7:00 PM86 °FPassing clouds.13 mph75%29.62 "HgN/A
6:30 PM86 °FPassing clouds.13 mph79%29.62 "HgN/A
6:00 PM88 °FPassing clouds.14 mph70%29.59 "HgN/A
Weather by CustomWeather, © 2016

See weather overviewHow to use our weather pages